Location: Unspecified
(35.7250°N, 0.0000°E)
Time: 21:44:13
(UTC+00:00)

A-11 Canister half - All Passes

Search period start: 24 June 2019 00:00
Search period end: 04 July 2019 00:00
Orbit: 1516 x 1684 km, 47.2° (Epoch: 23 June)

Date Brightness Start Highest point End Pass type
(mag) Time Alt. Az. Time Alt. Az. Time Alt. Az.
24 Jun - 06:39:55 10° SE 06:43:25 12° ESE 06:46:55 10° E daylight
24 Jun - 08:37:13 10° SSW 08:46:58 55° SE 08:56:28 10° ENE daylight
24 Jun - 10:42:06 10° WSW 10:52:01 62° NNW 11:01:38 10° NE daylight
24 Jun - 12:49:24 10° WNW 12:58:36 42° N 13:07:30 10° ENE daylight
24 Jun - 14:55:41 10° NW 15:05:12 59° NNE 15:14:23 10° ESE daylight
24 Jun - 17:01:00 10° WNW 17:10:10 57° SW 17:19:07 10° SSE daylight
24 Jun - 19:10:31 10° WSW 19:13:30 12° WSW 19:16:28 10° SW daylight
25 Jun - 06:18:30 10° SE 06:20:35 11° ESE 06:22:40 10° ESE daylight
25 Jun - 08:14:24 10° SSW 08:24:04 52° SE 08:33:30 10° ENE daylight
25 Jun - 10:19:03 10° WSW 10:29:02 64° NNW 10:38:43 10° NE daylight
25 Jun - 12:26:20 10° WNW 12:35:34 42° N 12:44:30 10° ENE daylight
25 Jun - 14:32:42 10° NW 14:42:13 57° NNE 14:51:23 10° E daylight
25 Jun - 16:38:01 10° WNW 16:47:17 60° SW 16:56:20 10° SE daylight
25 Jun - 18:46:43 10° W 18:50:42 13° WSW 18:54:40 10° SSW daylight
26 Jun - 07:51:37 10° SSW 08:01:10 49° SE 08:10:31 10° ENE daylight
26 Jun - 09:56:01 10° WSW 10:06:03 67° NNW 10:15:48 10° NE daylight
26 Jun - 12:03:14 10° WNW 12:12:31 42° N 12:21:31 10° ENE daylight
26 Jun - 14:09:43 10° NW 14:19:14 55° NNE 14:28:24 10° E daylight
26 Jun - 16:15:03 10° WNW 16:24:26 64° SW 16:33:32 10° SE daylight
26 Jun - 18:23:09 10° W 18:27:54 15° WSW 18:32:37 10° SSW daylight
27 Jun - 07:28:50 10° SSW 07:38:16 46° SE 07:47:32 10° ENE daylight
27 Jun - 09:32:59 10° WSW 09:43:04 70° NNW 09:52:52 10° NE daylight
27 Jun - 11:40:09 10° WNW 11:49:29 43° N 11:58:30 10° ENE daylight
27 Jun - 13:46:44 10° NW 13:56:15 53° NNE 14:05:24 10° E daylight
27 Jun - 15:52:04 10° WNW 16:01:32 68° SW 16:10:43 10° SE daylight
27 Jun - 17:59:43 10° W 18:05:05 17° WSW 18:10:25 10° SSW daylight
28 Jun - 07:06:05 10° SSW 07:15:23 43° SE 07:24:31 10° ENE daylight
28 Jun - 09:09:58 10° WSW 09:20:05 73° NNW 09:29:56 10° NE daylight
28 Jun - 11:17:04 10° WNW 11:26:26 43° N 11:35:31 10° ENE daylight
28 Jun - 13:23:44 10° WNW 13:33:15 52° NNE 13:42:24 10° E daylight
28 Jun - 15:29:05 10° WNW 15:38:40 72° SW 15:47:54 10° SE daylight
28 Jun - 17:36:23 10° W 17:42:16 19° SW 17:48:07 10° SSW daylight
29 Jun - 06:43:20 10° SSW 06:52:29 40° SE 07:01:30 10° ENE daylight
29 Jun - 08:46:57 10° WSW 08:57:06 76° NNW 09:07:01 10° NE daylight
29 Jun - 10:53:58 10° WNW 11:03:24 44° N 11:12:32 10° ENE daylight
29 Jun - 13:00:45 10° WNW 13:10:14 50° NNE 13:19:23 10° E daylight
29 Jun - 15:06:08 10° WNW 15:15:46 76° SW 15:25:03 10° SE daylight
29 Jun - 17:13:06 10° W 17:19:28 21° SW 17:25:46 10° SSW daylight
30 Jun - 06:20:38 10° SSW 06:29:36 37° SE 06:38:28 10° ENE daylight
30 Jun - 08:23:57 10° WSW 08:34:08 79° NNW 08:44:05 10° NE daylight
30 Jun - 10:30:52 10° W 10:40:21 44° N 10:49:33 10° ENE daylight
30 Jun - 12:37:44 10° WNW 12:47:14 49° NNE 12:56:23 10° E daylight
30 Jun - 14:43:10 10° WNW 14:52:51 80° SW 15:02:12 10° SE daylight
30 Jun - 16:49:52 10° W 16:56:39 22° SW 17:03:20 10° S daylight
01 Jul - 05:57:57 10° S 06:06:43 35° SE 06:15:24 10° ENE daylight
01 Jul - 08:00:58 10° WSW 08:11:10 82° NNW 08:21:10 10° NE daylight
01 Jul - 10:07:46 10° W 10:17:18 45° N 10:26:34 10° ENE daylight
01 Jul - 12:14:44 10° WNW 12:24:12 48° NNE 12:33:21 10° E daylight
01 Jul - 14:20:12 10° WNW 14:29:57 85° SW 14:39:19 10° SE daylight
01 Jul - 16:26:41 10° WNW 16:33:50 25° SW 16:40:51 10° S daylight
02 Jul - 05:35:17 10° S 05:43:51 32° SE 05:52:20 10° ENE daylight
02 Jul - 07:37:59 10° SW 07:48:12 86° NW 07:58:13 10° NE daylight
02 Jul - 09:44:40 10° W 09:54:16 46° NNW 10:03:35 10° ENE daylight
02 Jul - 11:51:43 10° WNW 12:01:11 47° NNE 12:10:20 10° E daylight
02 Jul - 13:57:14 10° NW 14:07:02 88° SW 14:16:27 10° SE daylight
02 Jul - 16:03:32 10° WNW 16:11:00 27° SW 16:18:21 10° S daylight
03 Jul - 05:12:39 10° S 05:20:59 30° SE 05:29:14 10° ENE daylight
03 Jul - 07:15:01 10° SW 07:25:14 90° NNW 07:35:17 10° NE daylight
03 Jul - 09:21:35 10° W 09:31:13 47° NNW 09:40:37 10° ENE daylight
03 Jul - 11:28:40 10° WNW 11:38:09 46° NNE 11:47:18 10° E daylight
03 Jul - 13:34:16 10° NW 13:44:06 88° NNE 13:53:33 10° SE daylight
03 Jul - 15:40:24 10° WNW 15:48:11 29° SW 15:55:48 10° S daylight
